GFSGL_sfc_rhum_099.txt.gz
RH
93 96 96 94 95 95 94 90 92 94 96 91 90 88 88 94 92 98 98 97 98 97 97 97 95 92 94 93 92 90 93 93 92 97 85 74 76 74 72 74 71 71 79
91 94 98 96 94 93 94 90 93 94 92 88 86 89 89 97 98 98 98 98 96 98 98 98 98 95 94 93 94 94 92 94 90 96 93 79 81 82 77 77 73 68 75
90 92 93 96 96 95 95 91 91 95 94 91 91 90 92 92 93 96 93 91 92 94 92 94 96 97 97 95 94 94 92 94 92 94 96 87 79 79 84 86 89 87 85
88 90 94 95 96 96 91 91 93 93 93 91 90 93 96 97 96 97 98 98 98 94 97 97 95 95 93 95 94 93 93 94 92 89 94 92 82 85 79 90 94 89 89
91 91 94 91 91 92 92 96 95 96 94 91 92 92 91 89 88 94 93 96 96 97 97 95 98 98 98 94 93 95 94 94 95 95 96 97 97 98 94 95 97 97 97
95 95 91 92 91 94 94 96 96 96 95 94 95 94 94 87 97 99 98 95 95 96 98 98 97 98 98 99 99 100 96 94 95 94 94 96 95 98 99 98 97 98 99
88 89 90 92 94 93 93 93 98 98 95 96 95 94 96 93 97 97 96 92 95 96 96 96 95 95 98 96 97 97 98 98 100 95 95 98 99 99 98 99 98 96 98
85 91 92 90 95 96 96 100 100 100 96 96 96 94 94 93 96 96 95 92 95 96 96 95 97 98 98 97 96 98 98 97 99 98 99 100 100 100 99 97 95 97 97
96 94 95 92 94 96 99 100 100 98 96 96 94 94 95 95 94 93 90 90 94 96 95 95 95 97 96 94 94 95 96 97 96 95 96 96 96 96 96 93 98 95 98
95 96 96 95 95 96 97 97 99 98 97 94 95 96 96 96 94 92 88 89 94 95 93 96 96 95 92 93 94 93 94 98 95 94 94 94 94 94 93 98 100 96 97
94 93 93 95 96 97 97 97 97 97 97 95 94 95 94 95 96 92 89 91 92 92 94 96 95 91 91 92 89 92 95 94 95 93 93 93 93 91 90 89 93 93 93
92 92 94 93 94 95 95 96 98 98 97 97 96 96 96 97 94 92 91 91 88 92 96 96 95 90 89 89 91 90 88 88 88 89 90 92 91 92 93 92 91 89 87
89 93 93 92 93 92 93 93 90 92 92 95 94 95 94 94 96 94 94 92 93 94 94 93 91 89 88 93 92 88 87 88 90 90 92 94 94 89 85 82 80 68 63
76 79 83 86 88 87 78 81 84 87 89 90 91 93 92 91 92 93 93 93 94 94 93 94 95 94 94 95 94 94 94 94 92 93 95 92 90 86 82 75 71 62 56
66 73 75 75 79 79 89 90 86 94 87 86 89 88 90 92 96 94 93 94 94 93 91 90 91 92 93 94 94 95 93 91 91 91 90 89 86 81 81 76 71 69 74
68 63 75 73 72 70 70 78 87 93 88 84 83 86 93 87 82 83 85 88 89 86 86 91 93 92 91 89 88 87 86 86 86 83 85 82 81 80 80 78 71 68 67
79 67 63 72 75 77 79 80 84 86 84 88 85 80 78 76 76 78 78 77 75 73 84 86 89 88 85 80 79 79 84 83 81 83 83 84 82 80 78 76 73 66 68
92 92 81 80 82 86 89 90 90 91 92 92 85 85 80 78 75 74 71 67 76 74 74 80 84 81 75 71 68 71 76 79 78 76 80 80 79 74 74 69 66 68 57
89 93 91 90 88 88 86 85 83 82 84 85 81 78 81 78 80 80 76 80 80 77 71 72 75 73 71 69 83 84 86 87 86 87 83 80 83 70 72 67 66 69 60
82 91 92 83 80 76 77 79 78 78 79 79 80 82 72 71 86 88 88 87 83 76 74 70 70 70 74 76 84 85 84 84 83 79 88 88 85 76 76 73 73 70 61
78 78 92 76 72 70 74 76 77 77 77 76 81 88 86 74 81 81 79 85 81 77 81 74 79 82 82 80 72 79 75 78 79 80 79 80 85 80 74 72 72 66 60
76 74 74 78 70 73 70 70 75 74 73 74 76 80 81 79 77 79 81 87 85 78 73 77 76 75 74 72 73 79 78 82 82 83 84 81 76 77 75 76 76 75 67
76 80 76 76 79 83 79 73 78 80 80 81 75 74 75 80 80 75 82 86 80 83 80 80 84 82 79 80 76 73 74 75 76 81 83 81 76 78 77 76 73 73 72
80 84 79 81 86 83 89 90 86 85 81 84 86 84 82 84 86 87 89 88 86 87 86 84 79 78 81 83 81 76 74 78 75 77 76 82 78 78 78 74 73 77 75
84 87 88 88 91 92 92 89 90 90 89 90 90 89 82 84 84 87 89 88 88 87 85 85 83 82 81 83 84 83 86 91 79 85 80 80 83 82 80 75 77 72 75
82 84 85 84 86 87 88 90 91 91 91 91 91 91 90 88 85 88 87 87 87 86 85 88 84 79 86 82 82 87 91 88 83 88 77 74 79 81 81 79 73 76 71

GFSGL_sfc_rhum_102.txt.gz
RH
89 91 94 91 86 85 88 88 91 88 82 87 86 96 95 95 92 92 90 81 84 92 91 94 91 89 93 92 88 80 81 79 94 96 87 93 94 92 82 74 64 64 75
87 89 94 94 96 96 95 94 91 93 89 86 88 94 95 90 88 87 86 87 91 97 96 96 94 92 93 91 90 88 91 86 87 94 96 97 92 88 82 77 60 69 74
87 90 91 92 95 96 97 95 92 82 80 78 79 87 88 83 82 92 92 96 94 94 94 96 93 95 95 94 92 94 93 92 90 90 94 92 89 88 80 86 82 81 81
93 88 92 94 95 95 95 96 94 86 85 79 79 86 88 91 90 92 93 93 93 85 79 83 79 89 95 96 96 94 95 94 92 92 92 94 92 90 92 95 95 85 85
94 96 93 92 93 92 93 94 96 95 94 91 93 92 90 86 85 94 95 93 95 96 97 92 96 98 99 98 95 95 95 95 94 93 94 93 94 98 96 93 95 96 95
87 91 90 94 89 91 92 93 94 94 95 92 93 90 92 89 98 99 97 94 92 93 96 93 93 97 98 100 100 100 96 94 94 93 91 92 94 93 91 94 96 96 98
85 86 93 95 94 95 94 93 98 97 96 97 95 94 96 95 98 97 97 90 93 94 94 92 89 90 97 97 98 98 98 99 99 90 93 94 97 97 98 98 95 94 97
87 89 89 93 92 94 95 100 100 100 100 100 98 95 93 92 96 96 95 92 94 94 94 94 95 96 96 96 97 99 100 99 100 99 100 100 100 100 98 96 96 98 98
94 96 97 96 95 93 95 98 100 98 97 98 98 96 95 95 94 93 90 91 94 96 94 94 93 96 94 91 95 97 96 98 96 96 97 97 98 98 98 96 98 95 98
96 97 97 100 98 96 99 98 98 97 97 95 96 95 95 95 93 91 88 90 95 93 92 94 95 95 93 91 93 93 97 99 96 95 95 95 95 96 95 98 100 99 97
96 95 95 96 100 100 100 100 100 99 97 97 96 96 95 95 94 91 90 92 94 94 94 96 94 91 91 90 90 94 96 95 95 94 94 94 94 95 94 95 96 96 95
95 94 96 97 99 100 100 100 100 100 98 98 97 97 97 97 92 92 91 91 89 92 96 94 94 89 89 88 91 90 89 90 92 94 93 94 94 95 95 95 95 95 95
91 93 95 96 97 96 96 97 93 98 98 98 96 96 97 97 97 95 95 93 93 95 96 93 89 87 87 90 87 85 85 88 90 92 94 95 94 93 92 90 82 79 82
65 70 75 81 85 86 75 77 85 89 89 90 94 95 94 93 94 96 95 94 96 94 95 96 96 95 94 94 94 95 94 94 93 93 95 96 93 91 91 90 90 82 62
51 62 65 64 70 73 83 88 84 90 88 89 91 90 92 94 97 95 95 95 95 96 98 97 95 94 94 94 93 94 93 93 92 94 92 90 85 78 77 73 72 71 78
51 51 61 63 66 62 62 73 82 83 82 80 80 84 86 80 78 81 83 86 91 95 93 93 94 93 92 91 90 89 88 88 85 83 85 81 78 74 74 73 66 65 62
70 60 57 61 61 66 72 74 77 82 79 80 78 77 75 75 74 74 73 71 67 69 82 83 87 86 81 71 70 69 74 71 69 72 75 77 76 73 71 69 66 62 60
84 78 78 76 78 81 83 83 81 81 82 84 78 79 76 76 75 71 64 59 70 67 69 74 76 73 62 56 57 62 65 68 69 66 72 74 73 69 69 64 60 61 49
86 86 84 84 82 79 79 78 76 76 77 76 75 70 73 71 73 71 67 73 72 67 62 62 66 62 59 60 74 76 79 78 76 78 74 71 75 64 63 59 60 59 49
74 78 73 72 72 70 70 68 66 68 69 70 70 72 62 62 77 80 80 80 74 65 63 59 60 62 67 68 77 78 77 76 74 70 79 79 76 67 67 64 66 61 52
68 66 67 63 65 65 66 66 63 64 65 64 68 80 77 61 69 70 68 76 72 66 71 62 69 72 72 72 63 72 68 71 69 69 70 71 76 71 63 64 63 56 50
59 57 57 62 59 66 62 57 63 63 61 62 64 69 68 69 65 65 68 79 78 68 62 68 66 65 66 66 68 75 74 76 74 72 73 70 66 68 66 66 66 66 58
57 64 59 54 62 64 68 62 67 71 70 72 66 66 65 74 73 66 73 79 72 76 73 72 77 74 72 75 72 69 69 70 72 72 72 71 66 67 68 67 64 66 65
62 67 58 61 70 66 76 80 76 74 70 74 81 78 76 76 79 78 78 78 76 78 78 76 72 71 72 75 74 69 67 72 67 70 62 70 68 66 68 64 64 67 67
68 71 71 70 76 77 78 75 80 82 82 81 81 82 74 76 74 78 78 78 76 77 72 72 73 70 74 74 75 75 79 80 76 77 70 68 68 66 68 66 66 64 62
64 65 68 71 72 73 75 77 78 80 82 84 83 83 81 78 75 81 80 75 75 73 64 74 70 57 67 68 70 81 79 78 74 81 70 67 70 71 70 68 56 67 58

GFSGL_sfc_rhum_105.txt.gz
RH
86 86 88 90 90 91 77 68 66 67 67 70 76 82 82 81 85 84 79 90 86 83 83 83 88 84 86 90 91 86 90 93 96 91 79 81 93 92 90 90 85 84 90
84 86 88 88 89 92 94 90 74 73 75 70 77 73 74 81 83 92 92 91 88 82 80 91 89 81 86 83 89 94 93 90 91 94 84 92 92 91 90 94 89 81 81
83 88 88 89 90 92 93 94 95 83 90 89 77 74 75 81 86 91 91 89 88 79 76 83 90 87 95 94 92 93 91 94 93 94 96 90 91 92 97 98 96 93 90
84 90 94 93 92 93 92 94 92 96 94 92 84 80 80 80 79 80 87 92 87 85 89 90 88 92 92 91 94 95 92 94 95 95 94 96 95 94 94 96 97 92 93
88 92 97 96 90 93 94 96 93 95 92 94 92 92 91 88 88 88 90 95 95 93 95 88 95 96 97 99 96 94 96 97 96 97 96 95 96 98 97 95 96 97 98
92 92 87 88 89 92 94 95 95 92 94 92 95 95 93 88 99 100 97 95 96 97 98 94 91 95 96 99 100 100 100 97 97 94 94 94 95 96 95 96 97 97 99
94 96 92 95 95 96 93 94 98 96 94 98 97 94 96 96 98 99 97 92 95 95 94 94 88 88 94 94 97 98 98 98 100 92 93 92 93 95 94 97 96 95 98
90 96 96 97 98 98 96 94 97 98 100 99 96 97 96 93 97 96 94 92 94 95 95 95 96 94 94 93 95 99 100 99 99 99 100 100 100 100 91 91 94 99 99
94 96 98 98 98 97 96 94 95 95 96 97 97 96 98 97 99 95 90 91 93 95 93 93 93 93 93 91 94 98 97 98 98 98 98 98 98 99 98 96 99 96 100
96 98 98 98 100 100 100 100 100 98 97 95 95 96 96 97 99 94 88 90 95 93 92 93 93 95 92 90 91 93 96 99 97 96 96 95 96 96 96 100 99 99 97
92 93 93 94 97 100 100 100 100 100 100 97 97 97 96 95 96 94 91 93 93 92 93 95 95 91 92 92 91 94 97 94 95 95 95 95 95 95 96 96 98 98 97
95 92 93 94 96 95 98 100 100 100 100 100 99 97 97 97 95 94 93 93 91 92 96 94 94 88 88 90 92 91 90 90 91 93 94 95 95 95 96 96 96 96 96
86 93 94 91 91 91 90 91 91 94 92 96 95 96 96 98 98 96 96 94 94 96 96 94 91 88 88 91 90 90 90 91 92 93 94 95 96 97 95 93 94 94 94
58 63 67 75 78 78 75 78 82 90 89 89 92 93 95 94 95 96 96 96 97 98 98 97 97 97 96 97 95 95 95 94 94 94 95 96 96 95 94 96 95 94 92
47 52 56 63 68 75 78 78 80 90 86 90 93 90 93 94 96 94 94 96 97 98 99 98 96 96 96 97 96 96 97 97 96 96 95 95 95 91 91 91 88 88 91
50 50 58 54 55 54 62 79 79 77 75 76 77 81 86 76 73 74 74 80 88 92 92 94 95 95 94 93 94 94 93 93 93 93 93 83 81 81 85 88 82 75 71
62 57 56 61 60 63 64 65 69 84 78 75 72 74 74 74 72 68 64 66 69 74 85 90 94 92 89 83 82 80 83 78 75 76 77 79 75 70 70 67 63 56 57
82 76 76 74 75 78 78 78 78 78 80 82 78 75 72 70 70 69 66 63 72 70 73 76 78 70 61 58 58 61 65 67 68 66 72 73 73 69 69 63 58 58 46
81 79 86 84 79 76 74 72 71 71 72 72 71 67 67 64 64 66 66 73 70 66 59 60 65 63 62 63 75 77 81 79 75 76 72 71 75 65 65 62 60 57 50
74 67 65 66 66 65 64 63 61 64 65 66 70 70 66 59 72 75 78 81 72 64 62 58 60 63 66 67 76 77 76 74 73 70 78 78 76 68 67 65 64 59 50
63 59 58 58 58 60 61 59 58 59 60 59 68 73 75 61 65 67 65 76 72 67 74 62 68 70 69 70 64 72 69 71 69 69 70 72 76 71 65 65 62 54 48
54 54 52 54 54 60 58 52 58 62 59 60 62 67 63 72 65 63 68 78 76 68 64 71 71 67 71 68 68 73 73 74 71 71 72 68 66 67 66 66 66 65 57
53 60 55 49 58 57 64 62 67 66 66 70 67 69 68 74 75 70 78 82 74 81 73 75 78 72 70 73 72 72 71 72 74 73 69 67 64 66 67 67 64 65 64
59 64 55 58 65 62 72 75 74 67 72 77 78 76 76 76 83 82 79 78 76 79 82 78 72 74 67 74 73 68 69 74 66 70 73 67 68 63 66 63 64 68 66
65 68 68 68 73 75 76 71 74 78 74 77 85 78 74 78 75 76 80 79 71 78 70 70 74 65 71 72 78 77 76 76 79 83 67 67 73 67 67 63 64 63 66
64 62 66 70 72 74 75 77 76 76 76 79 76 78 78 75 72 77 84 70 71 72 64 71 70 65 60 66 73 78 77 77 73 79 78 64 66 67 67 67 63 64 63

GFSGL_sfc_rhum_108.txt.gz
RH
82 79 84 86 86 87 90 91 92 95 74 78 87 90 91 95 94 92 89 89 92 94 92 86 91 91 93 90 95 96 97 96 96 96 96 95 97 96 93 89 90 84 87
81 81 83 86 86 88 89 90 93 93 92 77 80 86 90 90 89 92 93 91 91 92 90 92 95 94 93 93 94 94 95 94 94 95 96 98 97 94 93 94 91 89 93
81 84 84 86 89 90 90 89 90 91 93 92 81 88 92 89 91 88 88 88 88 88 94 95 96 95 96 96 95 96 95 95 96 95 96 93 96 96 97 95 98 97 94
85 87 88 89 88 90 90 90 90 90 91 91 94 94 95 91 87 84 84 87 88 90 90 88 91 94 93 94 96 94 94 96 97 98 96 96 94 96 96 97 99 97 98
86 91 92 88 86 88 90 91 91 92 91 90 92 93 95 94 93 97 93 91 86 90 98 98 98 97 99 99 98 97 95 97 98 98 98 98 98 99 98 96 97 98 98
87 89 88 89 89 90 91 92 92 94 96 92 95 94 96 91 97 100 99 97 96 97 99 99 97 97 98 99 99 100 100 99 96 96 94 96 96 96 96 96 97 97 99
94 88 91 96 97 97 97 92 93 94 93 97 96 94 97 96 97 98 99 97 97 98 98 96 93 92 96 97 98 98 99 98 99 97 96 94 93 94 94 98 95 92 98
92 91 96 97 98 98 97 96 97 96 95 96 96 97 95 95 98 98 97 95 96 96 96 96 96 96 97 97 98 99 99 98 99 100 100 100 100 96 91 90 93 100 99
92 94 98 98 98 98 98 98 98 95 94 94 94 93 95 96 98 99 95 94 95 96 93 94 95 96 94 92 97 98 99 99 97 96 96 97 98 100 96 96 98 97 100
93 94 97 98 95 97 98 99 99 99 97 95 95 96 95 96 96 96 96 94 94 93 92 93 93 95 92 90 94 95 98 99 97 95 95 94 96 98 98 100 98 100 98
87 87 87 89 89 92 92 97 98 99 95 96 96 97 97 97 97 95 94 95 95 93 94 94 94 90 92 92 91 96 98 96 96 95 95 95 96 96 96 98 100 100 100
92 87 88 85 87 87 89 90 91 90 93 96 95 94 95 97 97 96 96 95 94 94 96 95 94 89 90 90 92 91 90 92 92 93 94 96 96 96 96 96 96 97 97
79 83 85 86 84 83 86 89 89 89 91 90 92 93 96 96 97 96 96 97 97 97 97 97 92 90 88 92 91 89 90 92 92 93 95 96 97 97 96 95 95 94 95
60 63 68 74 86 82 75 78 83 88 89 90 91 92 91 91 94 96 97 97 98 98 98 98 98 97 97 96 95 96 96 96 94 94 96 97 96 95 95 96 95 93 90
57 62 65 65 66 82 88 84 81 84 80 88 91 91 92 93 88 77 84 95 98 98 98 96 96 95 95 96 96 96 97 97 96 97 96 96 96 95 96 96 95 95 95
66 65 70 70 70 68 69 86 78 76 73 72 71 77 86 74 70 68 68 72 78 82 91 95 96 96 96 96 96 96 96 96 97 97 97 97 97 96 96 96 93 94 94
76 76 74 74 75 77 77 78 83 90 79 75 72 72 70 68 68 68 65 66 67 72 86 87 88 90 94 95 96 96 96 97 97 96 96 97 97 96 95 95 96 94 95
83 82 84 84 86 86 87 88 88 87 88 88 71 69 73 70 66 70 68 66 76 73 78 83 85 84 80 83 88 95 96 95 96 96 96 90 91 86 85 81 80 82 64
86 84 86 89 86 84 83 82 82 82 84 86 82 74 76 71 64 67 72 84 83 80 75 76 81 80 82 85 92 92 93 91 90 91 89 86 87 80 82 79 76 76 69
77 78 77 75 77 75 75 75 74 77 79 89 86 81 78 78 83 86 86 88 88 84 86 80 81 84 86 84 89 90 91 90 88 88 93 94 94 91 90 90 91 82 68
73 69 74 67 70 72 73 73 74 78 78 77 95 90 86 79 84 86 86 90 89 89 90 91 91 90 91 86 86 89 90 90 91 90 91 92 93 92 90 89 85 79 72
66 65 62 65 66 72 73 69 79 76 73 80 81 81 84 88 84 85 86 91 91 88 83 93 90 88 89 91 94 93 92 95 95 93 92 92 92 91 91 90 88 90 84
66 72 66 65 71 73 81 75 82 84 84 86 84 85 87 93 94 91 93 93 91 94 94 90 91 92 88 95 92 88 94 92 93 93 95 92 93 93 93 92 91 88 87
72 76 69 72 80 78 84 85 83 82 82 85 90 94 90 93 93 94 96 94 93 96 94 96 94 91 90 92 91 86 89 92 92 92 89 93 90 90 91 88 88 90 90
79 81 81 82 86 86 86 84 84 85 85 87 88 89 87 88 88 90 97 94 90 92 93 95 96 95 88 90 90 91 94 96 94 95 94 90 88 87 90 90 92 88 88
80 80 82 86 87 87 88 89 87 88 88 88 86 89 89 86 86 90 88 96 93 90 87 92 91 82 80 92 89 96 94 94 95 94 98 92 94 94 95 92 83 93 88

GFSGL_sfc_rhum_114.txt.gz
RH
80 81 81 81 81 83 85 85 86 87 86 87 86 89 90 92 94 92 86 88 92 92 95 94 89 87 94 96 96 95 92 92 91 98 97 98 96 94 93 97 94 97 98
81 80 81 79 79 82 84 84 85 86 84 85 85 86 87 88 91 94 90 84 94 95 93 94 89 91 88 94 97 96 96 93 94 98 98 99 94 93 92 98 96 94 96
82 80 84 83 82 82 82 83 82 83 83 83 84 86 87 88 88 93 95 93 93 92 90 93 88 88 92 95 97 97 96 94 92 94 99 97 97 94 99 99 98 99 99
83 85 89 84 85 82 83 82 83 82 83 83 84 85 88 87 87 90 91 97 95 91 90 91 91 86 87 93 93 91 90 93 95 94 98 98 97 97 97 99 100 99 99
86 89 92 90 86 86 89 90 84 83 82 83 85 85 89 88 89 94 94 97 98 93 99 99 98 98 100 96 90 90 93 95 98 97 98 97 98 99 98 99 99 99 99
84 90 86 86 86 91 92 91 89 86 86 86 87 88 90 86 96 94 93 94 96 96 99 99 99 99 100 100 100 100 98 97 97 96 95 97 97 96 97 98 99 99 99
88 88 88 91 93 94 94 91 95 96 90 91 93 94 91 91 93 96 94 93 93 95 97 97 97 97 99 98 99 99 99 99 100 96 95 94 94 94 98 99 98 99 99
87 89 88 88 93 95 94 95 95 97 97 96 96 96 96 97 97 92 94 97 95 96 97 96 96 97 98 99 99 99 100 100 100 99 100 100 100 99 98 95 96 100 99
87 86 87 83 87 89 93 94 92 92 94 96 96 96 96 97 98 97 92 94 95 97 97 95 95 96 99 98 99 100 99 99 95 94 94 95 96 98 99 99 99 98 100
90 87 85 85 86 88 87 92 92 89 90 89 90 90 89 96 97 97 96 96 95 95 95 96 96 96 93 94 96 98 97 100 99 97 97 95 95 97 97 100 99 99 100
93 88 86 87 86 88 86 85 89 90 88 89 89 88 88 88 91 91 95 95 97 96 95 96 97 92 92 93 93 96 98 97 97 96 97 97 97 98 98 99 100 100 100
86 89 92 90 89 87 89 87 87 88 88 89 89 89 89 88 81 86 86 88 91 95 97 97 97 95 95 93 94 93 92 95 94 96 96 98 99 99 98 98 98 99 100
82 87 89 94 92 89 90 90 87 87 89 89 89 90 91 89 88 80 83 83 87 95 94 93 93 93 93 95 96 95 95 94 94 95 97 98 98 98 96 97 96 96 97
74 78 80 84 90 91 87 84 79 81 88 89 91 91 88 89 86 84 87 88 86 88 88 88 87 88 93 95 95 95 97 97 97 97 97 98 96 96 96 97 97 94 95
79 77 82 82 87 89 94 96 78 79 80 92 95 91 91 93 92 74 76 84 87 86 86 86 90 90 92 92 93 96 96 96 96 97 97 97 95 95 95 96 94 92 94
76 83 83 82 82 80 81 84 79 65 63 72 73 80 84 71 71 73 73 71 73 76 85 92 93 93 94 94 94 93 93 93 96 96 96 96 96 96 96 96 96 96 95
78 78 78 76 78 85 86 89 93 81 64 63 67 67 67 68 69 73 76 75 75 78 89 92 94 94 93 92 92 93 94 94 92 94 95 96 96 96 96 96 96 96 95
88 89 92 92 93 94 95 95 98 93 92 90 80 75 66 66 68 71 75 77 87 85 90 92 94 94 92 90 89 91 91 92 93 93 95 96 96 96 96 95 95 96 95
90 96 95 96 94 96 94 96 96 98 100 99 97 94 94 69 70 73 76 90 93 93 90 91 92 92 92 92 95 95 95 95 94 95 95 93 94 93 96 96 95 96 95
90 88 90 91 93 92 93 94 93 95 95 96 98 98 96 91 97 97 96 100 94 93 94 91 93 94 96 94 96 95 94 95 94 93 95 95 94 92 93 94 96 96 94
94 93 93 91 94 92 95 94 92 94 95 95 95 96 97 96 100 100 99 100 99 98 97 95 97 97 96 96 95 96 95 96 96 96 96 95 95 95 91 91 90 83 77
93 91 87 93 88 95 92 90 96 96 95 96 97 93 97 97 98 99 100 100 100 100 98 98 98 99 98 97 98 100 98 98 97 96 95 96 96 96 95 94 92 94 90
91 92 91 91 92 96 96 93 98 98 98 99 98 98 99 99 99 99 98 100 100 99 99 98 100 99 99 100 100 100 100 100 100 97 97 97 97 97 97 96 94 93 93
95 96 93 95 96 96 98 98 97 94 96 99 100 100 100 100 100 100 100 99 99 100 100 100 99 100 98 99 100 98 96 100 99 98 98 98 97 94 96 93 91 91 90
97 98 98 100 100 100 100 98 96 96 94 94 96 97 99 100 99 100 100 100 99 100 99 100 100 99 100 96 94 95 97 100 99 96 96 96 96 93 96 96 95 91 91
97 97 97 97 98 99 100 100 99 98 97 95 94 94 94 94 94 99 99 100 100 100 100 100 100 96 100 97 93 99 98 100 100 97 96 93 96 97 96 99 98 97 94

GFSGL_sfc_rhum_117.txt.gz
RH
82 81 84 85 82 78 83 84 85 85 84 84 83 85 84 85 86 90 93 94 94 90 93 94 93 87 89 92 93 90 91 91 89 96 97 98 97 96 94 97 92 96 99
81 82 84 82 82 82 81 82 83 83 82 82 82 83 84 85 86 88 91 93 91 93 91 94 89 87 86 88 93 92 91 91 93 95 98 99 97 95 95 98 95 96 96
80 83 86 86 83 84 80 79 82 82 82 81 82 84 86 87 86 88 88 90 94 92 89 92 88 92 92 92 92 92 94 94 92 91 98 97 96 94 97 98 98 97 97
85 87 89 88 88 87 84 83 82 80 81 81 82 82 86 84 85 88 89 92 94 94 96 96 92 92 91 90 93 94 97 97 96 96 96 98 97 97 94 97 100 99 100
87 89 91 88 83 84 84 85 85 85 81 79 82 82 85 84 85 91 92 90 92 92 92 94 97 95 95 91 93 96 97 98 97 97 97 96 97 99 97 99 99 100 99
89 91 85 86 84 88 90 89 88 87 85 84 86 85 87 86 93 91 93 92 90 91 93 92 92 93 99 100 100 100 95 91 94 94 90 96 94 95 97 99 100 99 100
82 81 81 86 88 90 88 87 90 92 90 91 90 90 90 95 97 94 92 93 94 95 96 95 91 91 97 99 99 99 99 99 98 87 89 88 95 94 95 99 99 99 99
83 86 82 82 85 85 89 92 92 91 93 93 92 91 90 92 97 97 96 96 95 95 95 95 99 98 99 97 98 99 99 99 99 100 97 100 100 99 96 96 97 100 100
87 89 89 85 89 87 90 92 92 92 92 92 90 90 90 92 94 97 94 96 96 97 96 95 95 96 97 96 94 99 98 97 99 99 97 97 97 98 100 99 100 100 100
91 90 88 87 89 92 92 93 92 92 92 91 90 89 83 89 84 88 92 95 96 96 95 97 96 96 95 96 95 95 96 98 97 96 96 97 97 98 98 100 99 99 100
90 88 88 89 87 91 91 90 91 92 89 89 89 90 88 84 84 81 81 92 95 92 93 95 96 96 96 93 92 96 98 97 97 97 97 97 98 98 98 99 100 100 100
87 89 93 92 91 90 89 86 88 89 88 89 88 88 89 89 76 76 78 81 84 94 95 94 94 91 94 94 95 96 93 95 96 96 96 96 98 99 99 98 99 100 100
84 91 93 94 93 94 89 86 89 88 90 90 88 90 90 89 89 77 76 77 82 92 89 84 85 86 86 91 94 94 96 96 96 96 96 97 98 98 97 97 95 97 98
79 81 83 88 89 91 81 74 81 88 88 90 90 91 88 87 89 87 86 86 85 87 86 87 84 82 82 87 89 90 94 96 97 97 97 97 97 95 96 97 98 96 96
77 78 80 79 82 86 89 77 74 80 74 85 93 88 89 90 85 76 79 85 86 85 85 85 88 89 90 90 89 89 91 91 94 96 96 96 96 96 96 96 95 95 96
75 73 81 81 84 81 82 79 70 65 65 64 63 70 82 67 65 69 73 74 75 76 85 91 93 92 93 92 92 91 90 90 93 93 93 95 96 96 96 96 96 96 96
84 74 82 84 86 89 94 90 95 86 69 67 66 63 62 64 64 65 66 71 75 78 89 92 94 94 93 90 91 91 93 91 88 90 93 94 95 94 95 95 96 96 96
94 92 95 96 98 98 100 100 100 99 100 97 86 75 68 65 67 67 67 68 79 82 88 93 94 94 90 89 87 89 89 90 92 92 92 93 94 95 94 94 95 96 96
92 96 98 99 99 99 98 99 96 96 97 98 98 94 96 74 72 76 77 90 89 86 85 86 92 92 91 90 94 94 94 94 94 95 94 92 93 92 95 95 95 95 95
96 92 96 95 96 96 94 94 93 95 96 97 96 97 97 93 99 98 98 100 97 91 88 84 91 94 95 93 92 93 93 94 94 92 95 95 94 92 93 93 93 96 95
97 95 95 92 94 95 96 96 95 97 98 97 98 100 100 99 100 100 99 100 100 98 98 91 97 98 95 91 87 93 94 96 96 96 95 94 96 96 93 93 92 86 83
94 94 91 94 92 95 93 91 95 96 95 94 96 98 99 98 98 100 99 100 100 100 98 100 97 98 98 98 99 100 96 100 98 97 96 95 96 96 95 95 95 95 91
94 95 94 91 92 97 96 94 97 95 96 96 97 96 97 100 100 100 99 100 100 100 100 99 100 97 99 99 100 100 100 100 100 98 97 96 96 97 98 96 95 93 93
96 97 93 96 97 97 99 100 97 97 96 96 96 95 96 96 98 100 99 100 100 100 100 100 100 99 98 99 99 96 93 99 99 96 98 97 96 95 97 96 97 95 96
98 98 99 100 100 100 100 100 100 99 100 100 97 96 94 94 94 95 94 95 96 98 98 100 100 100 100 98 93 91 95 100 100 100 94 96 97 97 98 98 99 97 95
96 98 99 100 100 100 100 100 100 100 100 99 99 98 98 95 94 94 93 93 93 93 94 94 95 97 97 98 93 98 100 100 100 100 97 96 98 97 98 100 98 100 98

GFSGL_sfc_rhum_120.txt.gz
RH
83 82 83 82 81 80 82 82 84 83 82 81 82 82 83 84 84 87 89 87 89 92 93 94 90 89 94 93 93 91 91 90 89 85 91 95 98 96 95 97 94 94 96
80 83 85 84 82 82 83 82 82 81 80 79 80 81 82 82 84 88 90 90 92 93 93 94 91 90 93 91 93 91 91 90 89 89 97 99 98 97 94 96 92 94 94
82 84 83 86 85 85 83 79 79 82 80 79 79 83 84 87 85 85 88 88 88 89 91 94 93 90 92 90 91 91 92 90 91 84 93 98 98 98 98 97 97 97 97
86 86 89 89 88 88 84 85 85 83 83 81 82 82 87 86 84 84 84 87 87 86 90 91 93 95 96 94 93 92 89 93 94 94 91 95 97 96 95 97 99 99 99
86 86 90 88 84 86 86 85 84 84 84 82 84 83 87 85 86 88 84 85 86 87 87 85 88 90 92 96 95 92 94 95 94 96 94 94 95 96 97 97 97 99 100
84 82 80 80 80 85 86 87 85 84 85 86 88 86 90 85 96 87 85 86 84 85 89 87 85 87 92 94 97 99 100 92 95 96 91 95 92 92 96 97 100 99 100
84 83 80 83 83 86 85 85 90 91 89 89 88 88 90 87 86 85 86 89 89 90 91 90 86 84 90 94 94 96 97 98 99 99 94 92 91 90 93 98 98 97 98
85 87 83 84 87 87 88 91 92 93 94 94 88 87 89 90 82 82 84 91 92 92 93 95 95 94 94 95 96 97 99 98 99 98 98 100 100 91 88 91 96 98 100
89 91 92 88 92 92 94 95 92 93 92 92 90 90 89 89 76 78 86 89 90 90 90 94 94 94 96 93 94 96 96 96 96 95 96 96 96 98 99 98 100 99 100
94 92 90 86 89 91 91 93 92 97 92 90 90 86 83 89 75 74 83 90 92 90 88 89 88 95 96 95 96 96 95 97 97 97 96 95 96 97 98 100 99 99 100
92 89 89 90 85 88 90 92 93 95 88 88 88 87 86 84 83 73 74 90 94 91 91 92 93 89 91 94 93 96 97 96 95 96 96 97 96 96 96 98 100 100 100
93 91 94 94 91 87 88 91 89 90 88 87 88 88 87 87 76 75 75 75 80 93 94 92 88 79 84 89 92 93 93 95 95 95 93 94 96 96 96 97 98 98 100
87 92 93 92 94 84 86 88 86 88 88 87 87 89 88 86 86 76 76 76 79 90 87 82 80 78 79 84 83 88 91 93 94 94 95 96 97 97 97 96 95 96 96
77 79 80 83 85 83 74 74 80 82 85 86 86 90 86 83 82 82 84 85 83 85 84 85 82 81 79 82 84 86 90 94 96 96 96 97 96 96 96 97 97 96 96
68 74 79 79 83 83 82 80 76 80 72 80 86 85 86 86 80 69 74 82 83 83 82 82 87 88 88 88 87 87 88 89 92 93 94 94 94 94 95 96 95 96 96
71 77 84 82 85 80 80 81 73 69 66 65 65 70 84 67 64 64 65 67 69 72 81 89 91 92 92 91 91 90 88 89 91 90 90 90 94 94 95 95 96 96 96
85 77 87 84 88 90 92 90 96 88 77 72 69 68 65 66 67 66 65 66 67 70 84 89 93 93 91 86 86 87 90 88 86 89 90 90 90 92 95 94 95 95 95
96 94 97 98 98 99 100 100 100 100 100 99 89 80 75 69 70 71 70 67 77 76 79 86 90 90 84 80 76 77 83 87 88 89 91 92 91 91 92 93 94 95 94
97 99 99 98 98 99 98 98 99 98 98 97 96 94 97 79 78 79 86 94 91 86 80 80 83 84 80 76 85 85 88 91 92 94 92 91 94 90 87 85 88 94 94
98 94 96 96 97 97 97 97 94 94 92 95 96 99 94 92 99 97 98 100 97 92 91 84 82 83 86 84 86 89 88 92 93 92 94 94 94 93 90 88 86 88 92
98 96 97 96 96 97 99 96 95 95 97 96 96 99 97 95 98 100 97 98 99 96 98 93 92 94 90 88 82 90 88 93 94 94 94 93 94 94 90 88 87 84 79
97 96 91 94 91 95 92 89 92 93 92 94 96 92 95 96 97 97 97 98 99 98 96 97 96 93 94 90 93 96 90 94 96 95 94 94 92 92 93 86 87 88 83
94 94 90 90 90 96 94 91 96 97 97 97 97 94 93 95 95 94 96 97 96 97 97 98 100 98 95 98 96 94 95 93 99 98 96 95 93 93 94 92 88 86 88
93 96 91 95 97 96 100 100 98 97 96 99 100 98 98 97 96 96 95 95 94 94 95 98 97 98 96 97 98 95 90 97 96 96 98 96 94 92 94 91 89 90 90
97 98 99 100 100 100 100 100 100 100 100 100 100 100 97 97 96 96 95 94 92 93 92 94 95 94 94 97 97 96 98 100 96 100 95 92 96 96 95 94 94 88 91
96 97 99 100 100 100 100 100 100 100 100 100 100 100 100 99 96 98 94 92 92 90 89 90 90 93 95 92 92 95 100 100 96 100 100 92 96 96 97 96 96 91 89

GFSGL_sfc_rhum_123.txt.gz
RH
77 77 79 80 78 77 77 77 78 76 76 77 79 81 80 82 81 84 86 84 88 89 90 91 93 90 92 88 89 90 91 90 93 76 62 60 67 74 80 91 89 88 88
78 79 80 78 77 76 78 76 77 77 76 78 79 82 80 81 81 83 86 84 88 89 90 91 91 86 90 87 88 91 93 91 93 90 78 76 75 79 78 88 90 92 91
76 79 80 78 78 77 74 74 73 74 74 75 79 85 85 86 82 80 78 81 83 85 86 89 89 89 92 94 95 89 88 87 88 90 85 80 85 87 91 93 95 95 93
70 72 77 75 75 74 71 71 73 73 74 75 78 82 89 84 81 80 77 78 79 79 83 84 86 89 92 94 92 94 92 92 90 89 92 94 94 92 94 96 97 94 97
67 71 74 69 68 69 71 70 70 72 72 72 75 78 85 84 86 85 79 77 77 78 80 77 82 87 88 91 93 95 95 95 93 92 93 94 94 96 97 91 93 95 98
67 68 66 67 66 72 70 70 69 70 70 70 73 74 81 72 80 82 80 80 78 79 81 82 76 83 86 86 92 94 95 96 96 94 91 96 91 89 89 91 93 99 99
69 68 70 76 78 80 74 73 78 80 79 81 79 78 80 75 73 79 80 82 83 86 88 87 83 80 88 85 83 87 91 91 96 97 98 96 96 87 82 89 93 89 93
72 74 72 75 80 81 82 86 87 85 88 88 88 83 83 82 70 73 80 91 93 90 90 92 92 93 92 89 86 88 91 93 97 97 99 100 99 98 97 88 89 96 100
78 80 78 79 85 85 92 89 87 86 86 88 87 87 87 87 70 70 81 86 91 90 89 89 88 94 87 90 91 94 96 94 94 94 97 100 98 97 96 99 100 99 100
82 80 75 73 84 91 90 89 86 83 85 79 83 86 81 87 70 70 78 82 88 86 85 89 80 82 80 84 93 94 93 96 96 94 94 92 95 94 99 100 98 100 100
80 80 77 73 75 81 83 85 87 84 83 85 82 84 85 82 82 70 71 85 88 82 86 89 88 77 78 79 82 94 96 96 95 96 96 94 92 93 95 96 99 99 100
83 83 86 78 75 76 83 83 82 83 82 84 83 84 86 86 71 72 70 71 76 86 88 86 85 75 76 78 82 79 80 87 92 94 94 95 96 95 95 96 97 99 100
77 88 81 77 80 73 76 81 74 79 78 77 77 82 84 85 85 70 71 69 72 84 83 78 73 73 75 81 77 79 85 89 90 91 94 95 97 97 96 95 95 96 100
60 62 65 65 65 65 56 57 62 69 73 74 78 80 79 78 81 79 80 79 72 77 75 78 76 73 74 79 82 84 87 90 92 93 93 94 94 93 94 96 96 96 96
57 58 61 60 60 61 70 66 62 72 65 71 77 74 82 85 81 70 73 80 82 78 76 79 84 85 84 83 82 81 86 87 90 91 91 89 89 88 92 93 94 94 96
56 60 65 61 62 57 54 61 70 66 64 62 62 67 74 66 64 63 64 66 66 65 73 84 88 87 85 79 80 78 79 82 86 86 88 87 88 87 87 89 92 95 95
64 63 67 66 64 64 65 64 67 68 68 67 63 61 62 64 65 66 64 64 66 64 77 78 84 83 77 66 65 64 71 72 74 82 85 88 89 86 83 79 85 91 92
88 88 77 76 75 77 78 79 80 82 82 82 70 69 64 63 66 70 68 59 66 66 64 69 73 70 62 57 58 62 65 70 76 78 83 88 90 87 87 79 72 86 85
82 84 83 83 81 81 76 76 76 76 78 78 75 73 76 66 66 70 72 73 72 69 62 61 65 63 62 60 74 75 78 78 80 85 84 85 92 82 84 81 75 73 77
78 82 76 74 76 75 75 73 72 73 74 76 79 84 76 66 78 80 79 83 77 68 69 62 63 65 71 70 77 80 73 75 76 74 83 87 89 83 83 80 80 78 65
76 75 82 70 72 72 72 72 70 71 73 72 77 85 87 74 81 81 78 87 85 78 82 73 73 75 77 78 73 80 75 75 73 75 76 78 86 84 78 77 76 70 65
71 67 67 70 66 73 65 63 70 70 70 73 74 75 81 80 77 78 79 87 86 81 78 82 80 78 79 82 85 88 82 81 78 79 79 77 76 78 79 78 77 77 72
68 71 67 67 67 73 76 67 74 77 77 80 76 75 76 84 84 80 84 88 83 85 83 83 87 84 82 86 85 85 86 84 80 79 84 80 73 78 81 82 78 77 76
73 77 68 75 79 73 82 85 79 76 77 81 85 84 85 85 87 86 86 86 84 84 83 83 82 83 83 87 86 83 80 86 80 74 82 82 75 73 80 79 77 80 76
82 85 85 83 86 86 84 81 83 84 84 87 88 87 82 82 82 85 85 83 81 82 79 79 79 77 76 82 84 86 87 90 91 91 78 77 78 77 79 80 83 79 78
80 79 83 83 84 83 84 84 84 86 88 89 89 88 87 84 83 86 84 82 82 80 79 78 77 79 80 72 72 90 88 87 89 93 87 76 78 78 81 83 82 82 78

GFSGL_sfc_rhum_126.txt.gz
RH
71 70 70 71 70 68 70 71 70 70 71 73 75 76 75 76 75 77 78 78 82 84 85 86 87 86 90 92 93 90 79 84 84 63 51 50 58 58 50 58 64 64 60
69 71 73 71 68 67 69 69 70 70 69 69 70 73 70 73 75 77 78 77 80 83 84 85 85 78 88 88 92 92 94 86 86 85 73 63 66 62 63 69 70 70 64
62 65 65 65 65 65 64 65 66 65 66 68 68 73 71 73 74 74 75 77 78 80 83 83 86 86 90 91 91 91 92 89 92 92 88 84 82 76 72 71 78 75 79
56 57 61 60 59 57 56 58 61 59 60 62 65 66 67 67 71 73 70 73 74 78 83 81 84 88 90 91 90 93 89 91 89 93 88 78 82 78 76 79 91 92 90
57 61 63 57 55 57 59 58 58 58 54 53 55 57 58 58 65 76 69 70 72 75 78 75 81 85 85 84 88 93 92 94 93 92 92 91 88 93 91 86 92 87 94
54 56 57 58 55 61 60 62 59 58 59 59 61 59 58 46 71 77 74 71 72 75 77 76 74 81 83 85 85 84 90 96 95 96 95 95 90 96 89 89 92 95 98
53 55 59 67 68 71 63 62 67 69 65 73 68 66 68 64 70 73 73 76 77 81 84 82 74 71 81 79 84 90 86 88 91 94 96 97 97 97 97 95 94 92 90
58 63 62 65 74 74 76 80 82 86 86 86 82 81 75 74 68 70 70 82 92 86 88 88 90 89 84 80 76 84 96 95 96 94 96 97 96 94 95 94 96 99 95
68 71 74 74 80 79 80 81 84 84 85 83 82 79 80 80 67 67 74 86 96 87 86 86 83 87 77 79 86 91 96 99 89 87 94 90 92 93 91 93 96 98 100
74 72 63 71 79 81 83 81 84 86 85 78 82 79 73 79 68 66 76 74 81 75 77 81 71 76 72 75 88 90 93 95 97 98 100 95 93 96 95 96 97 98 100
70 71 70 63 75 78 80 84 82 81 81 79 79 79 76 75 76 67 66 78 79 73 73 78 78 69 70 72 75 88 89 87 88 92 94 95 95 93 96 97 97 99 98
73 75 78 75 71 72 77 80 78 78 77 77 77 78 77 77 68 68 66 68 73 77 80 78 78 67 66 69 75 73 75 79 88 90 92 92 93 94 95 96 98 98 100
72 78 77 72 75 66 70 74 68 74 71 71 70 74 75 75 76 64 64 65 66 78 77 72 65 63 64 68 66 68 74 85 88 89 92 93 92 91 96 95 96 97 99
46 48 49 52 53 50 44 47 53 61 65 66 70 72 72 70 73 73 72 72 67 72 68 72 68 66 64 69 73 76 80 83 85 88 91 90 87 87 86 89 95 95 96
41 43 44 44 46 50 58 59 53 67 60 65 69 68 77 79 78 69 72 76 75 70 69 72 77 78 79 78 76 76 74 78 80 82 85 87 86 84 82 80 82 86 94
39 42 47 43 43 39 38 52 64 62 59 60 59 63 70 63 62 61 60 61 59 57 66 74 77 76 72 68 70 69 70 68 70 68 74 77 82 84 82 80 79 84 88
44 43 50 48 44 48 48 47 55 68 61 59 60 59 59 61 62 62 58 54 55 53 66 69 74 74 66 56 57 57 62 61 61 63 67 75 79 78 79 78 78 79 83
80 67 63 64 66 70 72 73 74 74 75 74 69 64 62 60 60 61 60 53 58 55 55 61 66 64 54 49 51 53 56 61 64 63 67 73 80 76 78 76 74 79 75
76 76 76 76 75 74 74 71 68 68 68 68 66 62 64 58 57 60 61 67 65 60 52 50 55 54 53 51 68 69 71 70 71 76 71 72 82 70 71 70 72 74 70
70 72 64 64 66 64 62 60 57 60 61 62 64 68 60 54 71 73 73 77 71 60 62 54 53 57 63 61 70 74 70 71 70 66 74 78 80 71 69 71 75 75 65
64 64 67 58 58 57 58 58 54 56 57 55 60 77 72 57 64 65 62 73 71 64 71 64 68 72 72 71 64 72 68 70 68 67 68 68 79 74 65 66 67 66 60
56 54 54 56 52 59 50 47 55 55 53 56 58 62 64 67 63 62 64 76 76 67 64 70 71 68 70 74 77 82 78 78 75 73 72 70 67 67 68 68 68 70 66
54 58 54 52 53 58 64 53 61 65 64 67 63 63 63 73 73 66 73 79 72 75 72 71 77 74 72 76 77 78 81 81 80 80 79 74 67 68 71 71 67 69 72
61 66 55 63 68 60 72 76 70 63 65 72 77 76 75 76 79 78 79 80 78 79 77 78 73 72 72 76 76 72 70 80 80 78 82 78 69 65 69 68 66 70 72
70 74 74 71 76 76 76 72 74 75 76 78 79 79 72 74 74 78 79 77 76 78 75 75 75 72 71 76 72 76 79 83 82 83 80 79 72 69 68 69 71 68 70
69 66 71 72 74 75 76 78 78 77 78 79 80 80 79 77 74 80 78 75 76 75 73 74 73 73 74 67 66 82 79 82 85 82 83 79 76 71 70 73 71 72 70

GFSGL_sfc_rhum_132.txt.gz
RH
67 66 69 68 65 65 68 69 71 72 70 70 70 71 73 75 76 79 77 79 81 82 83 84 86 85 88 89 90 91 90 92 96 88 78 75 79 84 79 77 83 82 93
64 62 64 60 59 62 66 64 70 66 66 64 63 63 66 72 75 82 77 77 81 84 87 83 85 80 88 88 90 91 91 90 95 96 82 81 84 77 80 80 78 67 81
56 60 61 61 60 61 61 62 60 59 58 60 59 60 62 69 73 76 71 73 74 76 79 82 83 84 90 87 88 89 89 84 90 93 92 82 79 78 79 80 78 79 68
57 59 62 62 60 61 60 61 62 58 57 57 59 60 60 64 70 71 66 68 68 68 75 74 77 82 88 91 83 86 84 87 87 89 89 88 87 81 84 90 89 79 81
59 63 67 61 60 62 65 64 64 64 59 59 60 60 59 59 66 77 65 65 66 68 70 64 69 73 75 77 86 92 88 88 88 87 88 87 89 90 94 91 92 90 85
53 58 58 60 59 65 66 69 66 65 65 66 68 64 66 51 72 76 69 68 69 73 75 75 65 73 74 70 72 80 88 94 91 92 89 91 90 91 90 93 94 94 95
54 55 60 65 70 74 70 72 76 77 74 80 78 75 74 67 69 75 72 79 80 83 81 80 70 62 72 74 74 74 77 76 84 95 94 96 93 95 93 92 92 91 93
57 59 59 64 72 76 80 86 87 88 90 90 86 84 81 69 66 72 75 82 84 84 85 79 83 81 72 73 77 81 86 87 83 82 89 94 96 93 92 88 85 86 85
64 69 70 77 84 84 91 91 90 88 91 90 89 87 85 83 65 67 78 86 86 85 82 81 77 82 66 70 81 85 85 87 78 71 70 70 73 74 77 87 90 90 91
67 73 71 78 89 92 91 92 92 90 92 88 89 86 74 84 65 65 75 87 86 84 84 84 67 69 64 66 82 85 86 89 87 83 83 80 78 81 76 86 94 95 94
66 67 69 70 83 84 88 92 92 93 92 89 89 87 85 77 78 64 64 83 90 86 85 86 85 62 63 64 67 79 78 82 83 85 85 85 83 84 85 84 86 93 96
70 77 85 78 71 77 90 91 90 91 90 89 88 89 87 85 67 67 64 64 68 89 91 88 82 61 62 62 68 65 66 78 82 84 84 86 86 86 85 84 82 84 85
77 89 85 76 77 70 75 83 81 86 85 83 84 87 88 86 87 66 64 63 66 88 85 68 61 60 61 73 61 64 76 80 83 86 86 87 87 84 81 79 76 78 80
62 63 62 62 61 59 59 63 70 78 79 83 86 87 86 85 85 86 86 85 81 82 89 88 85 73 82 83 79 77 80 81 81 85 86 85 82 81 81 79 79 80 79
47 49 54 58 59 64 72 69 68 78 70 80 88 87 89 89 83 66 71 88 82 82 88 90 89 86 83 81 80 78 81 80 80 82 82 83 81 79 80 76 75 78 82
45 49 54 52 59 61 62 71 60 63 60 60 59 69 87 62 56 57 60 56 53 56 81 84 84 83 80 78 80 80 78 78 78 76 79 78 80 80 81 76 74 80 82
48 47 54 54 54 61 65 74 84 75 62 60 59 57 55 57 56 57 58 56 55 59 77 81 84 83 79 73 76 77 80 76 74 75 79 81 80 79 81 76 75 78 79
82 75 73 78 84 87 89 90 91 92 96 95 64 62 57 59 57 56 59 62 74 68 71 76 80 79 73 71 72 76 78 77 79 77 79 81 82 80 83 76 74 81 77
85 88 89 91 91 88 88 87 86 86 88 90 85 77 75 66 56 58 63 83 81 77 70 69 73 77 76 75 83 83 84 83 82 83 81 80 83 81 83 78 75 76 73
84 82 80 78 81 79 80 78 76 81 84 84 86 82 73 77 87 86 86 86 83 76 78 72 72 78 81 80 83 85 83 84 83 82 84 84 85 82 82 83 79 79 72
76 75 74 72 71 72 76 76 72 76 77 76 92 88 80 76 80 81 78 87 85 80 85 80 82 84 84 83 80 86 86 86 84 85 86 85 87 86 80 81 78 73 70
68 66 64 67 63 75 61 60 72 71 68 73 79 80 72 86 80 79 82 91 89 82 80 84 86 82 85 85 86 89 90 88 89 89 89 88 85 86 82 85 79 78 74
64 66 60 58 65 75 79 68 81 85 83 87 84 82 81 91 91 84 88 92 87 90 89 88 90 88 85 88 86 90 90 91 90 90 92 91 89 87 87 91 79 80 77
71 76 64 76 84 76 87 88 86 76 81 89 92 92 92 92 93 92 94 94 93 93 92 93 90 87 88 88 88 90 84 87 86 88 89 93 91 87 90 86 81 76 78
81 83 84 82 86 88 88 86 90 90 90 91 92 92 90 91 91 93 93 94 94 93 89 92 94 87 86 86 92 88 90 90 88 87 91 92 92 91 91 90 79 80 81
80 78 83 85 87 89 89 89 90 90 90 92 92 93 92 92 91 92 93 90 92 90 89 90 86 85 84 82 84 88 91 89 88 89 89 92 93 92 90 84 82 83 81